This is the latest recevied weather packets stored in our database for station/object KA8OAD-10. If no packets are shown the sender has not sent any weather packets the latest 10 day(s).
| Time | Temp. | Humidity | Pressure | Rain* | Wind** | Luminosity | Snow |
|---|---|---|---|---|---|---|---|
| 1787519461 | 22.22° C | 58% | 1011.8 hPa | 0 mm | - | 93 W/m² | - |
| 1787519160 | 22.22° C | 59% | 1011.8 hPa | 0 mm | - | 113 W/m² | - |
| 1787518863 | 22.22° C | 59% | 1011.9 hPa | 0 mm | - | 86 W/m² | - |
| 1787518563 | 22.22° C | 57% | 1011.8 hPa | 0 mm | - | 116 W/m² | - |
| 1787518264 | 22.22° C | 57% | 1011.8 hPa | 0 mm | - | 114 W/m² | - |
| 1787517962 | 22.22° C | 57% | 1011.8 hPa | 0 mm | - | 74 W/m² | - |
| 1787517662 | 22.22° C | 56% | 1011.8 hPa | 0 mm | - | 84 W/m² | - |
| 1787517361 | 22.22° C | 55% | 1011.8 hPa | 0 mm | - | 120 W/m² | - |
| 1787517060 | 22.22° C | 57% | 1011.8 hPa | 0 mm | - | 109 W/m² | - |
| 1787516764 | 22.22° C | 56% | 1011.9 hPa | 0 mm | - | 118 W/m² | - |
| 1787515561 | 22.78° C | 55% | 1011.8 hPa | 0 mm | - | 137 W/m² | - |
| 1787514961 | 22.78° C | 55% | 1012.1 hPa | 0 mm | - | 174 W/m² | - |
| 1787514363 | 23.33° C | 53% | 1012 hPa | 0 mm | - | 84 W/m² | - |
| 1787514063 | 23.89° C | 52% | 1012.1 hPa | 0 mm | - | 74 W/m² | - |
| 1787513762 | 23.89° C | 51% | 1012 hPa | 0 mm | - | 76 W/m² | - |
| 1787513461 | 24.44° C | 50% | 1012 hPa | 0 mm | - | 90 W/m² | - |
| 1787513161 | 24.44° C | 50% | 1011.9 hPa | 0 mm | - | 46 W/m² | - |
| 1787512564 | 25° C | 50% | 1011.8 hPa | 0 mm | - | 100 W/m² | - |
| 1787512263 | 25° C | 48% | 1011.9 hPa | 0 mm | - | 737 W/m² | - |
| 1787511662 | 25.56° C | 49% | 1012 hPa | 0 mm | - | 719 W/m² | - |
| 1787511361 | 25.56° C | 48% | 1012.1 hPa | 0 mm | - | 773 W/m² | - |
| 1787511060 | 25° C | 47% | 1012.1 hPa | 0 mm | - | 775 W/m² | - |
| 1787510760 | 25° C | 51% | 1012.1 hPa | 0 mm | - | 754 W/m² | - |
| 1787510464 | 25° C | 49% | 1012.1 hPa | 0 mm | - | 759 W/m² | - |
| 1787510163 | 25° C | 51% | 1012.3 hPa | 0 mm | - | 758 W/m² | - |
* Rain latest hour (hover to see other rain measurements)
** Current wind speed in m/s (hover to see current wind gust speed)